Location: Bonningues
(50.7927°N, 2.0150°E)
Time: 15:52:29
(UTC+00:00)

COSMOS 2487 - Pass Details

Date: 08 August 2020
Orbit: 439 x 443 km, 74.7° (Epoch: 19 September)

Event Time Altitude Azimuth Distance (km) Brightness Sun altitude
Exits shadow 23:32:05 45° 34° (NE) 618 3.3 -23.2°
Drops below altitude 10° 23:34:35 10° 26° (NNE) 1,566 5.9 -23.2°
Sets 23:36:40 0° 25° (NNE) 2,441 7.1 -23.3°
